Simultaneous Nadir Overpasses (SNOs) Predictions

Prediction of SNOs between NOAA-20 and AQUA Satellite Orbit:

Table of predicted SNOs for the next 14.0 days since TLE Epoch: 12/28/2024
Index Date (NOAA-20) Time (NOAA-20) Lat,Lon (NOAA-20) SZA (NOAA-20 ) Date (AQUA) Time (AQUA) Lat,Lon (AQUA) SZA (AQUA ) Distance(km) Time Diff (sec)
1 12/28/2024 13:02:49 81.32, -86.02 110.12 12/28/2024 13:02:44 81.31, -86.19 110.15 2.90 5
2 12/30/2024 23:24:34 -81.32, -61.72 69.96 12/30/2024 23:24:46 -81.32, -61.53 70.00 3.28 12
3 12/31/2024 00:15:17 81.32, 106.17 109.96 12/31/2024 00:14:05 81.32, 106.30 109.99 2.38 72
4 01/02/2025 09:46:16 81.32, -36.74 109.83 01/02/2025 09:46:46 81.32, -36.91 109.83 2.80 30
5 01/02/2025 10:37:02 -81.32, 130.40 70.16 01/02/2025 10:36:06 -81.31, 130.58 70.15 3.03 56
6 01/04/2025 20:08:00 -81.32, -12.17 70.39 01/04/2025 20:08:44 -81.32, -12.22 70.40 1.16 44
7 01/04/2025 20:58:44 81.32, 155.28 109.60 01/04/2025 20:58:04 81.31, 155.17 109.63 1.94 40
8 01/07/2025 06:29:42 81.32, 12.21 109.39 01/07/2025 06:30:39 81.33, 12.37 109.34 2.76 57
9 01/07/2025 07:20:27 -81.32, 179.79 70.65 01/07/2025 07:19:59 -81.32, 179.87 70.65 1.35 28
10 01/09/2025 16:51:26 -81.32, 36.66 70.89 01/09/2025 16:52:34 -81.31, 36.71 70.94 0.82 68



Historial Predications of SNOs between NOAA-20 and AQUA
